ISIS 1 (3669 NORAD) Tracking and Keplerian Element Data

This shows tracking and keplerian element data for the satellite.

Feedback or suggestion? Click here.




ElementValue
Catalog3669
NameISIS 1
Epoch Orbit26002
Epoch Day13.13391317
Epoch Year2024
RAAN241.4498
Inclination88.4255
Eccentricity0.1708805
Argument of Perigee236.4804
Mean Anonmoly106.1416
Mean Motion11.29823836
Decay Rate3.22E-06
L11 03669U 69009A 24013.13391317 .00000322 00000+0 23265-3 0 9993
L22 03669 88.4255 241.4498 1708805 236.4804 106.1416 11.29823836260028



Live tracking and technical data element details for ISIS 1 (NORAD 3669). ISIS 1 can be tracked NOW for your location showing map with azimuth and elevation plus other details from your city location.







IsCatalogInMostPopularTable: catalog: 3669, numindb: 321
Update: records affected: 1



GetName: 3669 ISIS 1

Hit Count: updated at: Sun, 14 Apr 2024 23:55:28 GMT